Weather in Dubovets

Russia / Lipetsk Oblast     52°16′33″N   38°11′10″E
temp.,
°C
wind,
m/s
gust,
m/s
humid.,
%
clouds,
%
prec.,
mm/h
press.,
hPa
HPBL,
m
28 october, thu
thu2800:00+5w4108296 0.0 1021282
03:00+3wsw3993100 0.0 1021192
06:00+4wsw41089100 0.0 1019304
09:00+6sw61382100 0.1 1018467
12:00+6sw71490100 1.5 1017682
15:00+7wsw61290100 1.7 1016537
18:00+8w5119084 0.0 1017470
21:00+8wnw5119299 0.1 1019347
29 october, fri
fri2900:00+7nnw51086100 0.1 1021382
03:00+5nnw379421 0.1 1023185
06:00+6nne4787100 0.0 1025309
09:00+7ne357694 0.0 1027306
12:00+9ne116240 0.0 1028846
15:00+10wnw125871 0.0 1028742
18:00+8sw226582 0.0 102940
21:00+8wsw236923 0.0 103077
30 october, sat
sat3000:00+6wsw34815 0.0 103060
03:00+5wsw35865 0.0 103186
06:00+4wsw35865 0.0 103274
09:00+6wsw36785 0.0 1033145
12:00+11wsw45565 0.0 1032381
15:00+13wsw34510 0.0 1032516
18:00+9sw34680 0.0 103244
21:00+7sw34740 0.0 103260
31 october, sun
sun3100:00+6sw34783 0.0 103364
03:00+5sw34795 0.0 103347
06:00+5sw33825 0.0 103343
09:00+6ssw25770 0.0 1033137
12:00+11ssw35530 0.0 1032400
15:00+12ssw45460 0.0 1030561
18:00+8ssw33610 0.0 103036
21:00+7ssw33650 0.0 103046
1 november, mon
mon100:00+6s35670 0.0 102966
03:00+5ssw33670 0.0 102945
06:00+4s33660 0.0 102831
09:00+6s25600 0.0 1028122
12:00+11sse45450 0.0 1027432
15:00+12sse45440 0.0 1024592
18:00+8se36590 0.0 102493
21:00+6se36650 0.0 1024102